Air Force Academy, CO

9:54 AM MST on November 22, 2017 (GMT -0700)
Usaf Academy

Weather History for KAFF - April, 2013

Change the Weather History Date:

Friday, April 5, 2013

  Actual Average Record
Temperature  
Mean Temperature 52 °F -  
Max Temperature 70 °F 51 °F 73 °F (2006)
Min Temperature 36 °F 27 °F 15 °F (2009)
Degree Days  
Heating Degree Days 12    
Growing Degree Days 2 (Base 50)    
Moisture  
Dew Point 17 °F    
Average Humidity 23    
Maximum Humidity 58    
Minimum Humidity 11    
Precipitation  
Precipitation 0.00 in - - ()
Sea Level Pressure  
Sea Level Pressure 29.79 in    
Wind  
Wind Speed 10 mph (West)    
Max Wind Speed 21 mph    
Max Gust Speed 32 mph    
Visibility 10 miles    
Events      
Averages and records for this station are not official NWS values.
T = Trace of Precipitation, MM = Missing Value Source: NWS Daily Summary

Daily Weather History Graph

Daily Weather History Graph

Search for Another Location

Airport or City:

Trip Planner

Search our weather history database for the weather conditions in past years. The results will help you decide how hot, cold, wet, or windy it might be!

Date:

Astronomy

Apr. 05, 2013 Rise Set
Actual Time 6:37 AM MDT 7:27 PM MDT
Civil Twilight 6:10 AM MDT 7:54 PM MDT
Nautical Twilight 5:38 AM MDT 8:26 PM MDT
Astronomical Twilight 5:05 AM MDT 8:59 PM MDT
Moon 3:43 AM MDT (4/5) 2:56 PM MDT (4/5)
Length of Visible Light 13h 44m
Length of Day
12h 49m
Waning Crescent, 23% of the Moon is Illuminated
Apr 5
Waning Crescent
Apr 10
New
Apr 18
First Quarter
Apr 25
Full
May 2
Last Quarter

Hourly Weather History & Observations

Time (MDT) Temp. Windchill Dew Point Humidity Pressure Visibility Wind Dir Wind Speed Gust Speed Precip Events Conditions
12:58 AM 44.6 °F 42.2 °F 19.6 °F 37% 29.94 in 10.0 mi NNW 4.6 mph - N/A   Clear
1:58 AM 36.5 °F 33.9 °F 20.5 °F 52% 29.94 in 10.0 mi Variable 3.5 mph - N/A   Clear
2:58 AM 36.1 °F 29.9 °F 22.3 °F 57% 29.92 in 10.0 mi NNW 8.1 mph - N/A   Partly Cloudy
3:58 AM 36.0 °F 31.1 °F 22.5 °F 58% 29.90 in 10.0 mi ENE 5.8 mph - N/A   Scattered Clouds
4:58 AM 37.0 °F - 21.9 °F 54% 29.87 in 10.0 mi Variable 2.3 mph - N/A   Partly Cloudy
5:58 AM 41.0 °F - 21.6 °F 46% 29.86 in 10.0 mi Variable 2.3 mph - N/A   Clear
6:58 AM 43.7 °F 39.1 °F 19.8 °F 38% 29.85 in 10.0 mi South 8.1 mph 17.3 mph N/A   Clear
7:58 AM 46.6 °F - 22.3 °F 38% 29.85 in 10.0 mi Variable 4.6 mph - N/A   Scattered Clouds
8:58 AM 49.1 °F - 14.7 °F 25% 29.86 in 10.0 mi NE 4.6 mph - N/A   Partly Cloudy
9:58 AM 50.9 °F - 20.7 °F 30% 29.85 in 10.0 mi ENE 3.5 mph - N/A   Partly Cloudy
10:58 AM 57.9 °F - 17.8 °F 21% 29.80 in 10.0 mi East 6.9 mph - N/A   Partly Cloudy
11:58 AM 64.2 °F - 13.5 °F 14% 29.75 in 10.0 mi SE 10.4 mph - N/A   Partly Cloudy
12:42 PM 66.2 °F - 12.2 °F 12% 29.89 in 10.0 mi SE 11.5 mph 19.6 mph N/A   Scattered Clouds
12:58 PM 65.8 °F - 12.2 °F 12% 29.71 in 10.0 mi SSE 11.5 mph - N/A   Scattered Clouds
1:24 PM 66.2 °F - 14.0 °F 13% 29.86 in 10.0 mi SSE 15.0 mph 23.0 mph N/A   Mostly Cloudy
1:25 PM 66.2 °F - 14.0 °F 13% 29.86 in 10.0 mi ESE 13.8 mph 23.0 mph N/A   Mostly Cloudy
1:58 PM 67.6 °F - 13.6 °F 12% 29.68 in 10.0 mi SSE 10.4 mph - N/A   Mostly Cloudy
2:58 PM 68.0 °F - 14.0 °F 12% 29.68 in 10.0 mi West 9.2 mph - N/A   Partly Cloudy
3:28 PM 69.8 °F - 14.0 °F 12% 29.81 in 10.0 mi WSW 18.4 mph 27.6 mph N/A   Scattered Clouds
3:32 PM 69.8 °F - 12.2 °F 11% 29.81 in 10.0 mi WNW 18.4 mph 27.6 mph N/A   Partly Cloudy
3:34 PM 69.8 °F - 14.0 °F 12% 29.81 in 10.0 mi WSW 13.8 mph 27.6 mph N/A   Partly Cloudy
3:43 PM 69.8 °F - 14.0 °F 12% 29.81 in 10.0 mi WSW 18.4 mph 26.5 mph N/A   Partly Cloudy
3:45 PM 69.8 °F - 14.0 °F 12% 29.81 in 10.0 mi SW 16.1 mph 26.5 mph N/A   Partly Cloudy
3:46 PM 68.0 °F - 14.0 °F 12% 29.81 in 10.0 mi SSW 18.4 mph 26.5 mph N/A   Scattered Clouds
3:48 PM 68.0 °F - 14.0 °F 12% 29.80 in 10.0 mi West 17.3 mph 29.9 mph N/A   Scattered Clouds
3:49 PM 68.0 °F - 14.0 °F 12% 29.80 in 10.0 mi West 16.1 mph 29.9 mph N/A   Scattered Clouds
3:51 PM 68.0 °F - 14.0 °F 12% 29.80 in 10.0 mi SW 12.7 mph 29.9 mph N/A   Scattered Clouds
3:52 PM 68.0 °F - 14.0 °F 12% 29.80 in 10.0 mi SW 12.7 mph 29.9 mph N/A   Scattered Clouds
3:58 PM 69.4 °F - 13.5 °F 12% 29.63 in 10.0 mi WSW 12.7 mph 29.9 mph N/A   Partly Cloudy
4:07 PM 69.8 °F - 14.0 °F 12% 29.79 in 10.0 mi SSW 16.1 mph 31.1 mph N/A   Partly Cloudy
4:19 PM 69.8 °F - 14.0 °F 12% 29.79 in 10.0 mi WSW 19.6 mph 25.3 mph N/A   Clear
4:29 PM 69.8 °F - 14.0 °F 12% 29.79 in 10.0 mi West 18.4 mph 23.0 mph N/A   Partly Cloudy
4:58 PM 67.6 °F - 15.4 °F 13% 29.63 in 10.0 mi WNW 17.3 mph 28.8 mph N/A   Partly Cloudy
5:07 PM 68.0 °F - 15.8 °F 13% 29.79 in 10.0 mi West 17.3 mph 28.8 mph N/A   Partly Cloudy
5:58 PM 63.3 °F - 20.5 °F 19% 29.65 in 10.0 mi West 9.2 mph 29.9 mph N/A   Clear
6:49 PM 64.4 °F - 17.6 °F 16% 29.80 in 10.0 mi WSW 13.8 mph 32.2 mph N/A   Clear
6:58 PM 63.5 °F - 16.9 °F 17% 29.64 in 10.0 mi WSW 16.1 mph 26.5 mph N/A   Clear
7:11 PM 60.8 °F - 17.6 °F 19% 29.81 in 10.0 mi West 13.8 mph 23.0 mph N/A   Clear
7:58 PM 59.4 °F - 21.0 °F 23% 29.65 in 10.0 mi NW 15.0 mph 26.5 mph N/A   Clear
7:59 PM 59.0 °F - 21.2 °F 23% 29.82 in 10.0 mi NNW 13.8 mph 26.5 mph N/A   Clear
8:58 PM 57.9 °F - 20.7 °F 24% 29.68 in 10.0 mi NNW 18.4 mph 23.0 mph N/A   Clear
9:04 PM 57.2 °F - 21.2 °F 25% 29.84 in 10.0 mi WNW 12.7 mph 28.8 mph N/A   Clear
9:27 PM 55.4 °F - 23.0 °F 29% 29.87 in 10.0 mi NW 12.7 mph - N/A   Clear
9:58 PM 54.5 °F - 23.4 °F 30% 29.72 in 10.0 mi West 18.4 mph 25.3 mph N/A   Mostly Cloudy
9:59 PM 55.4 °F - 23.0 °F 29% 29.88 in 10.0 mi West 17.3 mph 25.3 mph N/A   Mostly Cloudy
10:58 PM 52.3 °F - 26.4 °F 37% 29.70 in 10.0 mi West 20.7 mph - N/A   Mostly Cloudy
11:58 PM 50.9 °F - 27.5 °F 40% 29.73 in 10.0 mi NNW 6.9 mph - N/A   Clear